Regional Weather Roundup
Issued by NWS

Home | Current Version | Previous Version | Graphics & Text | Print | Product List | Glossary On
Versions: 1 2 3 4 5 6 7 8 9 10 11 12 13 14 15 16 17 18 19 20 21 22 23 24 25 26 27 28 29 30 31 32 33 34 35 36 37 38 39 40 41 42 43 44 45 46 47 48 49 50
000
ASUS43 KMKX 170720
RWRWI

WISCONSIN REGIONAL WEATHER ROUNDUP
NATIONAL WEATHER SERVICE MILWAUKEE/SULLIVAN WI
100 AM CST TUE JAN 17 2017

NOTE: "FAIR" INDICATES FEW OR NO CLOUDS BELOW 12,000 FEET WITH NO
SIGNIFICANT WEATHER AND/OR OBSTRUCTIONS TO VISIBILITY.

WIZ001-002-006>008-014>016-023>028-170800-
NORTHWEST WISCONSIN

CITY           SKY/WX    TMP DP  RH WIND       PRES   REMARKS
SUPERIOR ARPT  CLOUDY    19  16  89 CALM      30.02S
ASHLAND        PTCLDY    24  19  81 CALM      30.01S
HAYWARD        CLOUDY    29  22  75 N5        29.97F WCI  24
SIREN          CLOUDY    29  22  75 CALM      29.98S
CUMBERLAND     LGT SNOW  30  28  93 N7        29.95S WCI  23
RICE LAKE      LGT SNOW  30  28  92 N10       29.96F WCI  21
CHETEK         LGT SNOW  32  31  96 NE3       29.94F
LADYSMITH      FLURRIES  31  27  84 NE6       29.96F WCI  26
EAU CLAIRE     LGT RAIN  33  32  96 NE8       29.91F FOG     WCI  26
MENOMONIE      MIX PCPN  33  33 100 N5        29.92F WCI  28
NEW RICHMOND   LGT SNOW  31  30  97 N7        29.94F WCI  24
OSCEOLA        LGT SNOW  30  26  86 N3        29.98F
$$

WIZ003>005-009-010-017-018-170800-
NORTH CENTRAL WISCONSIN

CITY           SKY/WX    TMP DP  RH WIND       PRES   REMARKS
MANITOWISH WTR CLOUDY    24  23  97 CALM      29.95F
ARBOR VITAE    CLOUDY    27  23  85 CALM      29.94F
WOODRUFF       CLOUDY    27  23  85 CALM      29.94F
RHINELANDER    LGT SNOW  28  24  85 E3        29.95S FOG
EAGLE RIVER    CLOUDY    23  21  93 CALM      29.94F
LAND O LAKES   CLOUDY    20  18  92 CALM      29.97F FOG
PHILLIPS       MIX PCPN  29  25  83 N3        29.94F
TOMAHAWK       LGT SNOW  29  26  89 NE3       29.94F
MEDFORD        MIX PCPN  31  30  96 NE7       29.90F WCI  24
MERRILL        LGT SNOW  32  32 100 NE3         N/A
$$

WIZ029-030-035-036-043>047-170800-
CENTRAL WISCONSIN

CITY           SKY/WX    TMP DP  RH WIND       PRES   REMARKS
WAUSAU         MIX PCPN  32  31  96 NE7       29.90F FOG     WCI  26
MOSINEE        MIX PCPN  32  32 100 NE6       29.90F WCI  26
MARSHFIELD     LGT RAIN  33  31  92 E13       29.87F FOG     WCI  24
STEVENS POINT  CLOUDY    31  31 100 NE7       29.89F WCI  24
WAUPACA        LGT RAIN  34  33  93 CALM      29.90F
WAUTOMA        MIX PCPN N/A N/A N/A NE7       29.88F
WISC RAPIDS    LGT RAIN  33  33 100 E9        29.89F WCI  25
CAMP DOUGLAS   CLOUDY    33  32  98 E3        29.86F FOG
$$

WIZ011>013-019>022-031-037>040-048>050-170800-
NORTHEAST WISCONSIN

CITY           SKY/WX    TMP DP  RH WIND       PRES   REMARKS
ANTIGO         LGT SNOW  31  31  99 E7        29.93S WCI  24
SHAWANO        DRIZZLE   33  31  94 NE7       29.95F WCI  27
OCONTO         CLOUDY    32  30  93 NE6       29.95F WCI  26
STURGEON BAY   LGT RAIN  34  32  93 NE9       29.95F FOG     WCI  26
GREEN BAY      CLOUDY    34  34 100 NE13      29.92F FOG     WCI  25
MANITOWOC      MIX PCPN  36  35  96 NE5       29.92F WCI  32
APPLETON       DRIZZLE   32  32 100 NE7       29.88F WCI  26
CLINTONVILLE   MIX PCPN  32  32 100 NE7       29.92F WCI  26
OSHKOSH        CLOUDY    34  32  92 NE10      29.87F FOG     WCI  26
$$

WIZ032>034-041-042-053>061-170800-
SOUTHWEST WISCONSIN

CITY           SKY/WX    TMP DP  RH WIND       PRES   REMARKS
LA CROSSE      CLOUDY    36  33  89 NW6       29.88F FOG     WCI  31
SPARTA         MIX PCPN  32  32 100 CALM      29.88F
VIROQUA        CLOUDY    32  32 100 E3        29.83F
BOSCOBEL       CLOUDY    34  33  96 CALM      29.85F FOG
PRAIRIE DU CHI CLOUDY    33  32  97 CALM      29.84F FOG
PLATTEVILLE    CLOUDY    34  34 100 NE6       29.82S WCI  29
$$

WIZ056-057-062-063-064-067-068-170800-
SOUTH CENTRAL WISCONSIN

CITY           SKY/WX    TMP DP  RH WIND       PRES   REMARKS
REEDSBURG      CLOUDY    32  32 100 NE6       29.85F FOG     WCI  26
BARABOO/DELLS  CLOUDY    32  32 100 NE5       29.85F FOG     WCI  27
LONE ROCK      CLOUDY    34  33  96 NE3       29.86S
MINERAL POINT  LGT RAIN  34  34 100 NE6       29.81F WCI  29
MADISON        MIX PCPN  34  33  96 NE6       29.82F FOG     WCI  29
MIDDLETON      CLOUDY    35  35 100 NE5       29.83F WCI  31
WATERTOWN      CLOUDY    34  34 100 NE6       29.83F FOG     WCI  29
MONROE         RAIN      34  34 100 N10       29.78F VSB 1/4 WCI  26
JANESVILLE     DRIZZLE   36  36 100 NE5       29.80F WCI  32
$$

WIZ051-052-058>065-066-070>072-170800-
SOUTHEAST WISCONSIN

CITY           SKY/WX    TMP DP  RH WIND       PRES   REMARKS
MILWAUKEE      DRZL/FOG  37  35  92 NE10      29.83F VSB 1   WCI  30
WAUKESHA       FOG       32  32 100 NE7       29.84F VSB 1/2 WCI  26
MILWAUKEE/TIMM CLOUDY    34  32  93 NE7       29.85F FOG     WCI  28
RACINE         FOG       37  36  96 E12       29.83F VSB 1/2 WCI  29
KENOSHA        FOG       37  36  96 E8        29.80F VSB 1/4 WCI  31
FOND DU LAC    CLOUDY    35  32  88 E6        29.87F WCI  30
SHEBOYGAN      LGT RAIN  34  33  96 E8        29.88F FOG     WCI  27
WEST BEND      CLOUDY    34  34 100 E8        29.85F FOG     WCI  27
JUNEAU         FOG       33  33  99 NE8       29.85F VSB 1   WCI  27
$$

LSZ147-162-170800-
LAKE SUPERIOR

STATION/POSITION TIME  TEMP    WIND        PRES    WAVE
                       AIR SEA DIR/SP/G            HT/PER
                 (UTC) (F)     (DEG/KT/KT) (MB)    (FT/S)
DEVILS ISLAND    0700   34      70/  6/  6 1017.0F
PORT WING        0640   22     130/  2/  3 1016.3F
SAXON HARBOR     0640   25     200/  3/  4 1016.3S
$$

LMZ867-665-643>646-170800-
LAKE MICHIGAN

STATION/POSITION TIME  TEMP    WIND        PRES    WAVE
                       AIR SEA DIR/SP/G            HT/PER
                 (UTC) (F)     (DEG/KT/KT) (MB)    (FT/S)
NORTHPORT PIER   0640   32        CALM     1015.9F
SISTER BAY       0635   33     100/  3/  5   N/A
KEWAUNEE LAKESHO 0654   35      70/  8/ 10 1013.3F
SHEBOYGAN LAKESH 0700   36     100/ 12/ 13 1012.1F
PORT WASHINGTON  0640   36      90/  7/ 10 1012.9F
MILWAUKEE LAKESH 0700   35      40/  9/ 10   N/A
KENOSHA   LAKESH 0700   36      90/ 13/ 14 1009.5
$$

TC  - TEMPERATURE IN CELSIUS
VSB - VISIBILITY IN STATUTE MILES
WCI - WIND CHILL INDEX
HX  - HEAT INDEX





USA.gov is the U.S. government's official web portal to all federal, state and local government web resources and services.